RH
56 69 74 88 94 98 99 98 98 98 99 99 98 98 98 84 83 89 98 98 95 95 93 100 97 93 87 81 75 85 92 96 76 67 64 64 64 65 62 65 89 93 95 70
52 76 84 87 90 89 91 98 98 96 99 98 98 98 98 99 97 98 98 98 87 94 99 98 96 93 93 91 91 97 92 94 83 80 75 77 81 75 73 65 67 90 89 67
55 78 85 94 100 98 100 99 99 97 98 97 98 97 98 99 96 99 99 98 98 98 98 97 98 92 90 93 95 97 97 96 86 76 67 67 68 63 66 84 88 87 81 71
56 74 86 90 89 94 99 98 97 98 97 91 94 98 97 97 98 100 98 98 98 98 98 98 98 98 99 100 100 100 96 92 89 85 85 88 88 90 94 94 86 95 72 76
59 73 78 77 78 93 97 100 98 98 96 96 99 98 97 98 97 98 97 97 93 98 97 92 98 97 97 97 97 100 97 95 97 93 93 95 89 87 93 98 100 97 99 92
56 62 66 76 88 91 98 90 98 96 97 97 98 96 95 96 98 98 98 98 98 98 98 98 98 97 97 97 97 96 96 96 95 92 95 94 87 72 73 76 82 96 100 91
50 56 65 69 73 81 92 88 99 98 96 98 98 98 96 96 98 98 97 98 97 96 97 97 96 97 97 96 97 99 96 96 96 96 96 95 67 71 70 64 65 75 94 96
45 55 54 55 66 80 86 94 100 100 94 98 91 96 98 97 97 97 97 97 97 96 96 96 96 95 97 96 98 99 98 97 96 96 97 82 84 82 88 89 78 75 67 62
60 70 77 69 66 76 89 100 98 99 90 98 97 99 96 98 95 97 96 98 97 97 96 96 95 95 96 95 95 97 99 97 97 97 96 95 96 86 85 84 76 75 71 68
75 82 83 80 70 75 96 100 100 82 96 98 99 97 100 99 99 99 96 97 96 96 96 96 96 95 95 96 96 93 96 97 97 98 97 98 98 100 100 91 87 81 72 62
73 84 84 79 73 78 98 100 100 97 98 99 98 97 97 97 99 97 97 96 96 97 96 96 96 96 97 96 97 97 97 97 98 98 98 98 99 93 87 79 68 61 47 38
81 79 78 81 92 100 100 100 98 98 99 97 98 96 98 98 97 97 96 96 96 97 96 96 96 96 97 97 97 98 98 99 98 98 99 96 86 64 48 43 44 54 64 68
74 77 79 82 85 87 95 97 97 98 97 96 96 96 97 96 96 96 96 96 96 96 96 96 96 97 97 98 99 88 69 60 45 44 47 56 59 76 90 100 98 100 100 99
68 72 75 80 84 88 92 96 96 96 96 96 98 96 96 96 96 96 96 96 96 96 97 97 95 81 66 36 31 34 68 82 85 79 82 83 80 90 96 98 99 99 100 100
60 58 60 64 76 92 98 98 97 96 96 95 96 96 97 97 97 96 90 65 37 16 9 11 14 17 20 26 53 88 100 100 100 100 98 98 86 94 100 97 97 100 99 95
42 41 41 38 30 31 32 46 56 82 94 95 91 82 30 10 7 7 9 11 12 12 15 24 33 41 38 68 89 100 100 100 100 97 92 87 89 88 97 95 95 96 96 98
7 6 4 4 4 4 14 16 13 20 44 15 6 10 10 12 18 21 20 21 22 24 43 53 56 60 59 67 100 100 100 96 85 89 86 79 90 95 100 100 96 94 93 91
4 5 5 5 4 4 4 4 4 5 6 8 12 16 16 18 21 26 36 39 39 42 45 46 51 55 71 97 100 98 83 73 70 77 97 98 89 81 84 92 94 88 86 87
10 13 15 17 12 15 20 21 22 19 19 24 25 23 28 27 25 25 26 28 31 35 38 46 54 60 100 100 92 74 73 95 84 80 100 100 100 94 96 95 97 100 99 100
11 12 20 25 27 27 25 26 30 29 36 47 46 44 41 37 34 37 36 39 40 39 51 65 61 96 100 86 68 87 100 83 86 77 72 79 80 87 91 96 99 100 100 100
15 20 24 25 25 27 33 37 42 45 50 48 42 43 44 35 37 44 43 46 53 50 66 71 72 100 82 89 100 93 57 57 57 61 63 67 75 76 74 76 81 87 91 98
21 23 25 26 30 33 36 45 49 48 54 55 40 38 41 43 43 47 54 57 63 64 72 82 99 100 100 100 65 52 48 46 53 63 71 76 83 93 95 97 95 96 96 96
19 24 30 34 38 40 52 60 58 59 53 47 48 38 42 41 44 53 66 62 58 74 91 92 98 100 100 51 48 43 49 58 66 69 73 71 66 80 99 95 94 95 94 98
22 33 41 51 55 63 57 52 49 47 45 44 40 32 36 41 38 54 77 63 78 76 87 100 100 97 47 45 47 51 60 69 71 64 58 57 60 79 95 99 100 97 95 100
34 47 72 70 58 54 50 48 44 38 33 26 30 38 45 40 72 62 83 64 67 89 100 100 68 43 46 46 52 61 70 70 66 60 56 60 71 86 92 100 99 99 99 96
49 72 74 62 56 58 56 51 46 45 38 40 41 53 66 65 69 78 83 100 95 99 80 48 40 40 45 51 60 68 72 69 64 66 72 78 86 90 97 100 98 100 98 100
69 76 63 61 59 60 59 58 57 50 47 54 69 81 62 72 75 83 94 100 60 32 33 34 35 40 44 50 61 65 66 62 64 86 93 90 90 95 96 89 90 95 98 100
Wind_Speed
39 36 34 32 32 37 39 42 45 39 43 39 42 46 53 46 50 47 43 39 39 40 32 32 33 32 28 18 16 20 20 14 17 20 23 23 26 30 29 16 10 15 6 23
35 34 33 30 30 36 39 43 51 49 40 43 46 45 51 53 47 40 39 40 40 37 37 31 35 37 33 32 30 17 19 15 8 5 15 25 29 37 37 35 28 29 7 17
33 33 33 32 32 37 37 40 45 38 40 43 40 44 51 49 43 47 46 45 45 42 42 34 25 25 25 23 23 29 27 29 28 23 21 14 18 23 24 32 20 22 44 37
31 31 33 34 32 36 37 39 45 46 37 40 36 34 42 47 45 44 45 45 45 46 42 34 42 40 36 37 32 32 29 34 34 38 40 41 42 42 35 34 41 29 45 38
30 30 30 32 35 36 37 39 38 45 49 46 43 41 44 37 39 43 45 44 37 40 43 39 38 35 36 34 27 28 34 28 32 37 36 38 45 48 47 47 45 46 46 52
29 29 30 31 30 32 36 40 43 37 47 44 38 42 41 45 37 40 44 45 44 44 42 40 39 37 33 26 27 24 28 29 26 17 20 20 29 39 38 42 43 40 41 42
27 27 28 28 29 32 33 34 36 36 44 44 37 37 39 36 37 34 39 39 30 32 34 31 29 29 28 27 27 28 28 26 22 7 7 4 15 16 13 13 15 18 25 28
25 25 26 26 26 26 29 31 32 36 34 32 39 38 37 32 31 30 29 31 30 29 27 22 17 19 21 23 25 25 25 24 12 7 13 19 26 21 16 15 18 18 20 22
27 28 27 25 24 26 27 28 30 34 33 41 44 34 28 26 29 28 29 27 24 23 21 15 7 6 7 4 5 16 26 23 20 10 4 5 5 8 10 13 18 17 19 21
28 29 26 26 26 24 24 29 29 28 32 40 33 30 29 27 25 25 22 20 19 17 15 12 8 7 6 4 3 1 5 11 19 16 8 7 11 11 13 7 9 11 14 19
23 22 23 25 25 25 25 27 28 25 34 35 39 31 25 22 23 21 17 13 13 13 11 7 6 5 4 3 3 2 2 2 2 3 4 5 9 15 15 19 31 34 37 39
22 22 22 21 20 21 23 23 32 29 35 28 27 23 16 18 17 13 12 10 3 6 4 4 3 2 0 1 1 1 3 3 5 5 7 21 23 27 31 35 37 38 41 41
17 16 17 16 15 14 17 20 20 22 21 16 6 8 8 7 7 6 5 6 5 4 5 4 3 3 1 1 3 5 6 8 9 16 10 25 29 29 28 30 36 39 40 43
15 14 13 11 10 8 7 6 6 8 7 5 6 5 5 4 4 3 2 3 3 4 4 3 2 2 2 4 4 6 10 14 23 28 33 37 34 35 35 37 38 41 42 44
14 14 13 11 9 7 5 4 3 4 3 3 14 13 11 10 7 6 6 6 5 5 6 6 6 6 6 9 10 15 14 22 32 40 42 42 44 41 39 41 41 41 43 44
15 13 11 10 8 5 4 3 9 9 8 10 13 19 17 15 13 14 14 12 12 11 13 13 12 10 8 9 11 8 16 30 42 46 47 47 45 44 41 43 42 42 43 43
10 9 8 7 6 6 1 6 12 11 13 17 13 15 18 17 16 14 15 15 14 13 14 13 12 9 9 12 8 15 27 39 48 49 51 51 46 46 42 41 42 42 42 41
15 19 21 22 19 19 18 19 15 15 16 21 17 17 17 14 12 11 13 13 13 14 12 9 7 5 7 5 25 34 43 53 59 56 43 40 45 46 47 46 45 46 45 43
28 31 34 37 35 39 40 40 37 31 31 31 18 14 13 13 11 8 6 9 7 9 11 12 6 6 9 30 48 51 56 62 59 50 44 45 50 48 42 42 41 42 43 41
21 25 32 34 33 35 37 39 44 43 44 38 31 24 19 11 12 13 9 9 9 6 13 15 6 7 23 47 53 52 59 52 48 47 44 41 39 39 40 41 41 39 39 38
23 26 32 34 32 31 26 22 34 27 27 37 34 27 21 26 22 14 7 9 8 4 17 9 6 15 41 45 47 59 47 42 37 34 34 36 37 38 37 36 35 34 33 33
33 29 24 35 33 18 19 21 16 17 19 26 31 30 30 19 15 16 11 9 9 6 16 9 5 33 38 53 55 45 39 36 35 35 36 36 35 35 35 35 35 35 34 34
40 42 36 24 29 28 28 31 24 21 20 23 26 27 30 28 19 14 10 8 10 10 6 12 22 36 57 52 44 38 36 37 37 38 37 36 35 34 34 34 33 34 34 33
54 49 37 18 18 28 32 30 31 30 26 22 24 33 28 23 19 10 8 12 9 12 10 25 40 54 47 40 37 37 37 38 39 40 38 37 35 33 31 32 34 34 33 31
47 32 25 36 35 30 28 31 34 30 31 35 27 23 25 24 9 13 9 12 11 10 27 46 47 41 39 38 38 38 39 40 41 39 37 35 33 32 31 31 32 31 30 29
57 42 37 38 37 36 37 32 27 32 38 32 34 21 10 13 10 11 11 17 9 32 42 38 37 36 37 37 37 38 39 40 39 37 36 35 33 33 32 31 31 30 30 29
49 41 38 35 34 33 34 36 39 35 32 37 26 23 17 12 14 16 21 27 34 34 33 33 34 35 36 36 36 37 38 37 37 35 33 33 32 32 31 31 30 31 31 30
Wind_Direction
282 279 279 276 277 277 279 282 270 274 274 262 252 256 261 262 265 278 274 263 260 276 260 263 252 250 249 254 254 248 248 254 256 261 256 248 243 242 243 220 213 218 248 267
283 280 279 277 274 275 277 276 282 279 272 268 258 254 265 274 263 268 263 259 271 270 260 249 253 251 253 261 263 251 242 235 248 274 251 247 241 243 239 234 240 239 202 256
283 279 277 275 275 273 276 281 265 285 270 270 270 275 268 253 271 269 265 265 269 268 263 264 247 240 262 253 261 264 245 237 240 248 269 262 245 255 246 239 235 237 237 250
282 279 274 276 275 273 281 277 272 273 261 270 279 275 269 266 271 268 271 263 256 262 251 262 252 256 257 259 261 260 236 247 253 259 259 265 268 267 261 244 249 232 263 261
284 282 278 274 279 283 287 279 283 275 272 277 289 273 269 268 280 282 270 265 277 268 257 262 260 255 257 251 255 254 246 251 262 264 263 263 268 267 267 265 263 259 263 265
285 284 280 278 278 275 279 281 275 290 277 282 279 271 281 283 285 273 269 269 268 262 261 256 261 258 255 257 262 255 249 247 254 261 270 272 273 273 268 266 266 265 257 271
287 288 284 281 276 275 276 275 292 295 299 279 279 279 283 281 280 281 270 272 265 265 266 265 259 254 255 259 258 258 252 244 236 246 247 236 264 270 279 271 261 259 258 263
287 285 280 276 272 271 269 272 273 283 280 269 291 285 269 274 284 275 272 272 270 267 267 261 259 258 259 259 254 247 243 236 221 224 209 265 277 282 285 281 275 265 260 259
281 280 279 277 272 267 266 267 273 268 270 275 275 272 275 281 279 268 268 266 257 254 252 249 236 236 226 236 237 232 235 236 234 216 228 250 274 318 311 300 278 273 266 262
286 278 278 277 270 267 267 266 267 266 276 265 263 279 274 278 271 264 264 260 251 255 251 241 234 228 219 241 268 331 235 236 236 242 257 270 300 312 309 303 302 304 284 280
303 291 288 283 276 272 266 266 266 260 260 269 269 267 263 265 263 255 259 251 251 243 228 221 221 223 211 241 263 343 332 317 310 276 258 281 332 323 326 302 296 295 294 293
299 297 295 293 280 277 268 263 262 257 246 261 259 253 250 249 250 247 239 229 233 209 200 213 201 194 262 196 350 359 299 299 305 283 294 306 310 306 303 300 297 296 294 294
313 308 303 301 294 284 272 269 268 266 262 248 246 227 232 221 226 239 240 243 265 266 260 263 252 243 254 36 9 6 9 341 323 316 300 298 295 300 302 297 294 295 294 294
325 327 327 326 323 314 304 303 291 281 273 206 155 126 95 102 71 48 24 327 311 292 282 283 324 15 26 66 53 56 27 0 349 343 338 325 319 318 310 303 299 297 295 294
334 336 338 340 342 347 352 340 334 319 284 143 115 89 86 84 78 64 49 43 40 44 57 76 83 81 89 89 87 22 10 352 343 329 333 324 323 319 315 309 308 305 302 299
343 340 337 335 331 328 329 298 17 17 49 104 87 73 68 69 70 68 67 67 67 73 84 77 75 72 96 81 85 66 337 335 335 330 329 323 321 319 318 314 313 310 307 306
358 3 13 24 23 16 32 84 83 79 99 93 75 64 73 75 77 70 73 77 79 81 85 79 70 68 98 92 63 333 326 326 332 334 327 322 323 319 317 313 311 310 308 307
67 66 61 59 61 72 85 86 85 80 86 79 90 87 73 68 70 70 76 76 71 64 68 50 21 70 106 35 343 330 330 331 331 329 327 321 320 319 318 317 315 312 311 311
83 86 89 90 92 85 81 78 76 77 82 77 71 70 52 47 48 43 44 34 35 37 37 10 36 80 51 343 339 335 336 331 328 329 324 318 317 318 318 317 316 315 315 315
89 98 95 84 84 89 85 77 67 64 61 63 57 53 46 38 31 34 41 27 27 40 22 4 39 83 348 339 335 332 326 330 328 326 328 330 329 329 327 324 320 318 316 316
108 97 89 87 84 75 67 62 58 54 51 47 48 47 46 49 37 38 36 26 11 36 4 15 28 360 332 330 329 330 334 336 339 340 339 339 337 334 333 333 331 329 327 322
101 93 88 74 66 54 56 49 50 50 47 39 45 44 41 41 39 32 24 26 15 357 351 12 14 332 329 327 333 338 343 346 346 345 342 340 338 337 335 333 332 330 327 324
95 84 73 65 61 67 57 52 53 48 44 47 44 45 41 38 34 29 28 18 351 342 15 6 332 325 327 334 338 344 347 345 344 343 342 341 341 341 340 337 337 335 332 331
86 79 75 61 63 60 61 62 61 57 53 52 50 45 39 34 33 23 358 349 349 350 344 341 325 329 334 339 343 344 346 345 345 344 344 344 344 344 344 343 342 341 343 341
80 75 67 74 71 67 63 60 57 55 53 51 50 45 35 32 27 15 3 356 350 344 331 324 328 334 339 346 347 347 346 346 346 346 347 348 347 346 350 347 344 346 347 350
78 83 83 73 68 64 60 57 56 51 51 52 44 37 18 24 25 3 3 350 333 321 328 330 335 344 346 348 347 347 347 346 348 349 350 350 350 352 353 350 351 353 354 355
78 78 74 72 68 63 59 56 52 50 49 49 49 39 32 24 6 6 349 340 334 337 341 342 345 348 348 349 349 348 348 349 351 354 354 353 356 357 356 356 360 359 359 359